Time,TemperatureF,DewpointF,PressureIn,WindDirection,WindDirectionDegrees,WindSpeedMPH,WindSpeedGustMPH,Humidity,HourlyPrecipIn,Conditions,Clouds,dailyrainin,SoftwareType,DateUTC
2013-04-29 00:01:00,47.0,47.0,30.14,East,90,3.0,9.0,99,0.00,,,-99.99,,2013-04-29 07:01:00,
2013-04-29 00:11:00,47.0,47.0,30.14,East,90,3.0,9.0,99,0.00,,,-99.99,,2013-04-29 07:11:00,
2013-04-29 00:21:00,47.0,47.0,30.11,NW,315,2.0,7.0,99,0.00,,,-99.99,,2013-04-29 07:21:00,
2013-04-29 00:31:00,47.0,47.0,30.11,WNW,292,2.0,8.0,99,0.00,,,-99.99,,2013-04-29 07:31:00,
2013-04-29 00:41:00,47.0,47.0,30.11,WNW,292,2.0,8.0,99,0.00,,,-99.99,,2013-04-29 07:41:00,
2013-04-29 00:52:00,47.0,47.0,30.10,NW,315,0.0,8.0,99,0.00,,,-99.99,,2013-04-29 07:52:00,
2013-04-29 01:02:00,47.0,47.0,30.11,NE,45,0.0,5.0,99,0.00,,,-99.99,,2013-04-29 08:02:00,
2013-04-29 01:11:00,47.0,47.0,30.11,NE,45,0.0,5.0,99,0.00,,,-99.99,,2013-04-29 08:11:00,
2013-04-29 01:21:00,48.0,48.0,30.11,South,180,0.0,3.0,99,0.00,,,-99.99,,2013-04-29 08:21:00,
2013-04-29 01:31:00,48.0,48.0,30.12,North,360,0.0,2.0,99,0.00,,,-99.99,,2013-04-29 08:31:00,
2013-04-29 01:41:00,48.0,48.0,30.12,North,360,0.0,2.0,99,0.00,,,-99.99,,2013-04-29 08:41:00,
2013-04-29 01:51:00,48.0,48.0,30.13,South,180,2.0,4.0,99,0.00,,,-99.99,,2013-04-29 08:51:00,
2013-04-29 02:01:00,48.0,48.0,30.14,SE,135,2.0,5.0,99,0.00,,,-99.99,,2013-04-29 09:01:00,
2013-04-29 02:11:00,48.0,48.0,30.14,SE,135,2.0,5.0,99,0.00,,,-99.99,,2013-04-29 09:11:00,
2013-04-29 02:21:00,47.0,46.0,30.13,South,180,1.0,6.0,97,0.00,,,-99.99,,2013-04-29 09:21:00,
2013-04-29 02:32:00,47.0,46.0,30.14,South,180,1.0,4.0,98,0.00,,,-99.99,,2013-04-29 09:32:00,
2013-04-29 02:42:00,47.0,46.0,30.14,South,180,1.0,4.0,98,0.00,,,-99.99,,2013-04-29 09:42:00,
2013-04-29 02:52:00,46.0,45.0,30.14,SW,225,3.0,8.0,97,0.00,,,-99.99,,2013-04-29 09:52:00,
2013-04-29 03:02:00,46.0,45.0,30.14,SW,225,2.0,6.0,97,0.00,,,-99.99,,2013-04-29 10:02:00,
2013-04-29 03:12:00,46.0,45.0,30.14,SW,225,2.0,6.0,97,0.00,,,-99.99,,2013-04-29 10:12:00,
2013-04-29 03:22:00,46.0,45.0,30.14,South,180,2.0,5.0,97,0.00,,,-99.99,,2013-04-29 10:22:00,
2013-04-29 03:32:00,45.0,44.0,30.14,North,360,0.0,1.0,98,0.00,,,-99.99,,2013-04-29 10:32:00,
2013-04-29 03:41:00,45.0,44.0,30.14,North,360,0.0,1.0,98,0.00,,,-99.99,,2013-04-29 10:41:00,
2013-04-29 03:52:00,44.0,43.0,30.15,SW,225,0.0,1.0,98,0.00,,,-99.99,,2013-04-29 10:52:00,
2013-04-29 04:02:00,44.0,44.0,30.16,South,180,0.0,2.0,99,0.00,,,-99.99,,2013-04-29 11:02:00,
2013-04-29 04:11:00,44.0,44.0,30.16,South,180,0.0,2.0,99,0.00,,,-99.99,,2013-04-29 11:11:00,
2013-04-29 04:21:00,44.0,44.0,30.16,West,270,0.0,1.0,99,0.00,,,-99.99,,2013-04-29 11:21:00,
2013-04-29 04:31:00,44.0,44.0,30.16,West,270,0.0,1.0,99,0.00,,,-99.99,,2013-04-29 11:31:00,
2013-04-29 04:41:00,44.0,44.0,30.16,West,270,0.0,1.0,99,0.00,,,-99.99,,2013-04-29 11:41:00,
2013-04-29 04:52:00,45.0,45.0,30.17,West,270,0.0,1.0,99,0.00,,,-99.99,,2013-04-29 11:52:00,
2013-04-29 05:01:00,45.0,45.0,30.17,West,270,2.0,4.0,99,0.00,,,-99.99,,2013-04-29 12:01:00,
2013-04-29 05:11:00,45.0,45.0,30.17,West,270,2.0,4.0,99,0.00,,,-99.99,,2013-04-29 12:11:00,
2013-04-29 05:21:00,46.0,46.0,30.17,North,360,0.0,1.0,99,0.00,,,-99.99,,2013-04-29 12:21:00,
2013-04-29 05:31:00,46.0,46.0,30.17,NW,315,0.0,4.0,99,0.00,,,-99.99,,2013-04-29 12:31:00,
2013-04-29 05:41:00,46.0,46.0,30.17,NW,315,0.0,4.0,99,0.00,,,-99.99,,2013-04-29 12:41:00,
2013-04-29 05:52:00,46.0,46.0,30.16,SE,135,0.0,4.0,99,0.00,,,-99.99,,2013-04-29 12:52:00,
2013-04-29 06:01:00,45.0,45.0,30.17,SW,225,0.0,3.0,99,0.00,,,-99.99,,2013-04-29 13:01:00,
2013-04-29 06:11:00,45.0,45.0,30.17,SW,225,0.0,3.0,99,0.00,,,-99.99,,2013-04-29 13:11:00,
2013-04-29 06:21:00,44.0,44.0,30.18,East,90,0.0,2.0,99,0.00,,,-99.99,,2013-04-29 13:21:00,
2013-04-29 06:31:00,44.0,44.0,30.19,North,360,0.0,0.0,99,0.00,,,-99.99,,2013-04-29 13:31:00,
2013-04-29 06:42:00,44.0,44.0,30.19,North,360,0.0,0.0,99,0.00,,,-99.99,,2013-04-29 13:42:00,
2013-04-29 06:52:00,44.0,44.0,30.19,South,180,0.0,1.0,99,0.00,,,-99.99,,2013-04-29 13:52:00,
2013-04-29 07:01:00,44.0,44.0,30.20,SW,225,0.0,1.0,99,0.00,,,-99.99,,2013-04-29 14:01:00,
2013-04-29 07:11:00,44.0,44.0,30.20,SW,225,0.0,1.0,99,0.00,,,-99.99,,2013-04-29 14:11:00,
2013-04-29 07:21:00,44.0,44.0,30.20,SW,225,0.0,1.0,99,0.00,,,-99.99,,2013-04-29 14:21:00,
2013-04-29 07:32:00,44.0,44.0,30.21,South,180,0.0,1.0,99,0.00,,,-99.99,,2013-04-29 14:32:00,
2013-04-29 07:42:00,44.0,44.0,30.21,South,180,0.0,1.0,99,0.00,,,-99.99,,2013-04-29 14:42:00,
2013-04-29 07:52:00,45.0,45.0,30.22,West,270,0.0,4.0,99,0.00,,,-99.99,,2013-04-29 14:52:00,
2013-04-29 08:01:00,45.0,44.0,30.23,South,180,0.0,4.0,97,0.00,,,-99.99,,2013-04-29 15:01:00,
2013-04-29 08:12:00,45.0,44.0,30.23,South,180,0.0,4.0,97,0.00,,,-99.99,,2013-04-29 15:12:00,
2013-04-29 08:21:00,46.0,44.0,30.24,South,180,1.0,3.0,94,0.00,,,-99.99,,2013-04-29 15:21:00,
2013-04-29 08:33:00,47.0,45.0,30.24,South,180,1.0,4.0,92,0.00,,,-99.99,,2013-04-29 15:33:00,
2013-04-29 08:42:00,47.0,45.0,30.24,South,180,1.0,4.0,92,0.00,,,-99.99,,2013-04-29 15:42:00,
2013-04-29 08:52:00,47.0,44.0,30.25,East,90,1.0,4.0,90,0.00,,,-99.99,,2013-04-29 15:52:00,
2013-04-29 09:02:00,49.0,45.0,30.26,SSW,202,3.0,6.0,87,0.00,,,-99.99,,2013-04-29 16:02:00,
2013-04-29 09:23:00,49.0,45.0,30.26,SSW,202,2.0,8.0,85,0.00,,,-99.99,,2013-04-29 16:23:00,
2013-04-29 09:32:00,52.0,47.0,30.26,ESE,112,1.0,4.0,84,0.00,,,-99.99,,2013-04-29 16:32:00,
2013-04-29 09:52:00,54.0,47.0,30.27,SW,225,1.0,5.0,77,0.00,,,-99.99,,2013-04-29 16:52:00,
2013-04-29 10:02:00,55.0,47.0,30.27,North,360,0.0,2.0,74,0.00,,,-99.99,,2013-04-29 17:02:00,
2013-04-29 10:22:00,54.0,45.0,30.27,SW,225,2.0,3.0,72,0.00,,,-99.99,,2013-04-29 17:22:00,
2013-04-29 10:31:00,56.0,45.0,30.27,SSW,202,6.0,10.0,67,0.00,,,-99.99,,2013-04-29 17:31:00,
2013-04-29 10:52:00,56.0,46.0,30.27,SE,135,1.0,10.0,68,0.00,,,-99.99,,2013-04-29 17:52:00,
2013-04-29 11:01:00,57.0,45.0,30.28,SW,225,3.0,6.0,65,0.00,,,-99.99,,2013-04-29 18:01:00,
2013-04-29 11:22:00,58.0,45.0,30.28,West,270,2.0,8.0,62,0.00,,,-99.99,,2013-04-29 18:22:00,
2013-04-29 11:31:00,60.0,46.0,30.28,South,180,2.0,5.0,59,0.00,,,-99.99,,2013-04-29 18:31:00,
2013-04-29 11:51:00,60.0,44.0,30.28,SW,225,1.0,6.0,56,0.00,,,-99.99,,2013-04-29 18:51:00,
2013-04-29 12:01:00,56.0,43.0,30.29,NW,315,1.0,3.0,61,0.00,,,-99.99,,2013-04-29 19:01:00,
2013-04-29 12:21:00,55.0,42.0,30.29,SW,225,0.0,4.0,61,0.00,,,-99.99,,2013-04-29 19:21:00,
2013-04-29 12:41:00,55.0,42.0,30.29,SW,225,0.0,4.0,61,0.00,,,-99.99,,2013-04-29 19:41:00,
2013-04-29 12:52:00,62.0,45.0,30.29,North,360,3.0,6.0,53,0.00,,,-99.99,,2013-04-29 19:52:00,
2013-04-29 13:01:00,61.0,44.0,30.29,South,180,1.0,8.0,54,0.00,,,-99.99,,2013-04-29 20:01:00,
2013-04-29 13:32:00,56.0,41.0,30.29,SE,135,1.0,4.0,56,0.00,,,-99.99,,2013-04-29 20:32:00,
2013-04-29 13:42:00,56.0,41.0,30.29,SE,135,1.0,4.0,56,0.00,,,-99.99,,2013-04-29 20:42:00,
2013-04-29 13:51:00,59.0,44.0,30.29,West,270,0.0,5.0,57,0.00,,,-99.99,,2013-04-29 20:51:00,
2013-04-29 14:01:00,63.0,41.0,30.29,SW,225,5.0,13.0,44,0.00,,,-99.99,,2013-04-29 21:01:00,
2013-04-29 14:21:00,60.0,40.0,30.28,South,180,8.0,11.0,48,0.00,,,-99.99,,2013-04-29 21:21:00,
2013-04-29 14:33:00,60.0,40.0,30.29,SE,135,2.0,12.0,48,0.00,,,-99.99,,2013-04-29 21:33:00,
2013-04-29 14:53:00,61.0,41.0,30.28,South,180,5.0,9.0,47,0.00,,,-99.99,,2013-04-29 21:53:00,
2013-04-29 15:02:00,62.0,42.0,30.28,South,180,3.0,8.0,47,0.00,,,-99.99,,2013-04-29 22:02:00,
2013-04-29 15:32:00,67.0,43.0,30.28,South,180,2.0,8.0,41,0.00,,,-99.99,,2013-04-29 22:32:00,
2013-04-29 15:52:00,66.0,42.0,30.28,SW,225,3.0,8.0,42,0.00,,,-99.99,,2013-04-29 22:52:00,
2013-04-29 16:02:00,64.0,42.0,30.27,NW,315,2.0,9.0,44,0.00,,,-99.99,,2013-04-29 23:02:00,
2013-04-29 16:22:00,67.0,43.0,30.27,West,270,1.0,6.0,41,0.00,,,-99.99,,2013-04-29 23:22:00,
2013-04-29 16:31:00,65.0,39.0,30.27,NW,315,1.0,9.0,38,0.00,,,-99.99,,2013-04-29 23:31:00,
2013-04-29 16:52:00,65.0,41.0,30.27,South,180,1.0,8.0,42,0.00,,,-99.99,,2013-04-29 23:52:00,
2013-04-29 17:01:00,68.0,37.0,30.27,NW,315,2.0,7.0,32,0.00,,,-99.99,,2013-04-30 00:01:00,
2013-04-29 17:21:00,64.0,38.0,30.27,SE,135,1.0,2.0,38,0.00,,,-99.99,,2013-04-30 00:21:00,
2013-04-29 17:31:00,64.0,41.0,30.27,NW,315,0.0,6.0,43,0.00,,,-99.99,,2013-04-30 00:31:00,
2013-04-29 17:52:00,60.0,40.0,30.27,North,360,2.0,12.0,47,0.00,,,-99.99,,2013-04-30 00:52:00,
2013-04-29 18:01:00,57.0,38.0,30.27,NW,315,3.0,8.0,49,0.00,,,-99.99,,2013-04-30 01:01:00,
2013-04-29 18:21:00,58.0,39.0,30.27,SW,225,2.0,4.0,50,0.00,,,-99.99,,2013-04-30 01:21:00,
2013-04-29 18:31:00,62.0,40.0,30.28,NE,45,0.0,4.0,45,0.00,,,-99.99,,2013-04-30 01:31:00,
2013-04-29 18:52:00,61.0,39.0,30.28,South,180,4.0,8.0,44,0.00,,,-99.99,,2013-04-30 01:52:00,
2013-04-29 19:01:00,60.0,39.0,30.28,WNW,292,4.0,11.0,46,0.00,,,-99.99,,2013-04-30 02:01:00,
2013-04-29 19:21:00,55.0,39.0,30.28,SSE,158,2.0,5.0,54,0.00,,,-99.99,,2013-04-30 02:21:00,
2013-04-29 19:31:00,55.0,39.0,30.28,South,180,0.0,8.0,55,0.00,,,-99.99,,2013-04-30 02:31:00,
2013-04-29 19:41:00,55.0,39.0,30.28,South,180,0.0,8.0,55,0.00,,,-99.99,,2013-04-30 02:41:00,
2013-04-29 19:51:00,54.0,39.0,30.29,South,180,2.0,3.0,57,0.00,,,-99.99,,2013-04-30 02:51:00,
2013-04-29 20:01:00,53.0,38.0,30.29,West,270,0.0,5.0,57,0.00,,,-99.99,,2013-04-30 03:01:00,
2013-04-29 20:11:00,53.0,38.0,30.29,West,270,0.0,5.0,57,0.00,,,-99.99,,2013-04-30 03:11:00,
2013-04-29 20:21:00,53.0,39.0,30.29,SSW,202,1.0,5.0,59,0.00,,,-99.99,,2013-04-30 03:21:00,
2013-04-29 20:32:00,50.0,39.0,30.29,NE,45,0.0,5.0,65,0.00,,,-99.99,,2013-04-30 03:32:00,
2013-04-29 20:42:00,50.0,39.0,30.29,NE,45,0.0,5.0,65,0.00,,,-99.99,,2013-04-30 03:42:00,
2013-04-29 20:52:00,50.0,39.0,30.29,NE,45,0.0,5.0,65,0.00,,,-99.99,,2013-04-30 03:52:00,
2013-04-29 21:02:00,47.0,38.0,30.30,SE,135,3.0,6.0,71,0.00,,,-99.99,,2013-04-30 04:02:00,
2013-04-29 21:12:00,47.0,38.0,30.30,SE,135,3.0,6.0,71,0.00,,,-99.99,,2013-04-30 04:12:00,
2013-04-29 21:22:00,47.0,39.0,30.31,ENE,68,1.0,4.0,73,0.00,,,-99.99,,2013-04-30 04:22:00,
2013-04-29 21:32:00,46.0,39.0,30.32,SSE,158,0.0,7.0,76,0.00,,,-99.99,,2013-04-30 04:32:00,
2013-04-29 21:42:00,46.0,39.0,30.32,SSE,158,0.0,7.0,76,0.00,,,-99.99,,2013-04-30 04:42:00,
2013-04-29 21:52:00,46.0,40.0,30.32,SW,225,2.0,4.0,78,0.00,,,-99.99,,2013-04-30 04:52:00,
2013-04-29 22:02:00,46.0,40.0,30.33,South,180,0.0,5.0,78,0.00,,,-99.99,,2013-04-30 05:02:00,
2013-04-29 22:11:00,46.0,40.0,30.33,South,180,0.0,5.0,78,0.00,,,-99.99,,2013-04-30 05:11:00,
2013-04-29 22:21:00,45.0,39.0,30.33,South,180,1.0,2.0,79,0.00,,,-99.99,,2013-04-30 05:21:00,
2013-04-29 22:31:00,45.0,39.0,30.33,SW,225,1.0,4.0,80,0.00,,,-99.99,,2013-04-30 05:31:00,
2013-04-29 22:42:00,45.0,39.0,30.33,SW,225,1.0,4.0,80,0.00,,,-99.99,,2013-04-30 05:42:00,
2013-04-29 22:51:00,45.0,40.0,30.34,SW,225,2.0,7.0,81,0.00,,,-99.99,,2013-04-30 05:51:00,
2013-04-29 23:01:00,45.0,39.0,30.34,SE,135,0.0,4.0,80,0.00,,,-99.99,,2013-04-30 06:01:00,
2013-04-29 23:11:00,45.0,39.0,30.34,SE,135,0.0,4.0,80,0.00,,,-99.99,,2013-04-30 06:11:00,
2013-04-29 23:21:00,44.0,39.0,30.35,East,90,1.0,4.0,81,0.00,,,-99.99,,2013-04-30 06:21:00,
2013-04-29 23:31:00,44.0,39.0,30.35,SE,135,0.0,4.0,81,0.00,,,-99.99,,2013-04-30 06:31:00,
2013-04-29 23:41:00,44.0,39.0,30.35,SE,135,0.0,4.0,81,0.00,,,-99.99,,2013-04-30 06:41:00,
2013-04-29 23:52:00,44.0,39.0,30.35,East,90,0.0,2.0,81,0.00,,,-99.99,,2013-04-30 06:52:00,